Flag for Finland Weather past 2 weeks in Helsinki, Finland

Now
55 °F

Light rain. Passing clouds.


Feels Like: 54 °F
Forecast: 54 / 62 °F
Wind: 7 mph from Northwest

Location: Helsinki Malmi Airport

Current Time: Aug 28, 2014 at 2:33:26 AM

Latest Report: Aug 28, 2014 at 1:50 AM


Visibility: N/A

Pressure: 29.50 "Hg

Humidity: 94%

Dew point: 54 °F

Location of HelsinkiLocation

Historic Weather in Helsinki — Graph

°F

Helsinki temperature yesterday

Maximum temperature yesterday: 63 °F (at 12:20 PM)
Minimum temperature yesterday: 52 °F (at 5:50 AM)
Average temperature yesterday: 57 °F

Past Weeks' High & Low Weather Summary

 TemperatureHumidityPressure
High72 °F (Aug 15, 1:50 PM)100% (Aug 13, 2:20 AM)29.86 "Hg (Aug 13, 2:20 AM)
Low50 °F (Aug 17, 6:20 AM)49% (Aug 16, 6:20 PM)29.30 "Hg (Aug 26, 9:20 AM)
Average59 °F83%29.61 "Hg
* Reported Aug 13 1:20 AM — Aug 28 1:20 AM, Helsinki, Weather by CustomWeather, © 2014

Note: Actual official high and low records may vary slightly from our data, if they occured in-between our weather recording intervals... More about our weather records

Advertising

Helsinki weather history for previous 24 hours

 ConditionsComfort  
Time TempWeatherWind HumidityBarometerVisibility
1:20 AM
Aug 28
55 °FPassing clouds.6 mph94%29.50 "HgN/A
12:50 AM55 °FPartly cloudy.5 mph94%29.50 "HgN/A
12:20 AM54 °FClear.5 mph100%29.50 "Hg10 mi
11:50 PM
Aug 27
55 °FPassing clouds.7 mph94%29.50 "HgN/A
11:20 PM55 °FPassing clouds.6 mph94%29.50 "HgN/A
10:50 PM55 °FClear.6 mph94%29.47 "Hg10 mi
10:20 PM57 °FPassing clouds.9 mph88%29.47 "HgN/A
9:50 PM57 °FPartly cloudy.7 mph94%29.47 "HgN/A
8:50 PM57 °FPartly sunny.6 mph94%29.47 "HgN/A
8:20 PM57 °FPartly sunny.5 mph88%29.47 "HgN/A
7:50 PM55 °FScattered showers. Broken clouds.6 mph94%29.47 "HgN/A
7:20 PM55 °FPartly sunny.3 mph94%29.47 "HgN/A
6:50 PM57 °FSprinkles. Broken clouds.3 mph88%29.45 "HgN/A
5:50 PM61 °FThunderstorms. Broken clouds.2 mph83%29.45 "HgN/A
5:20 PM63 °FScattered showers. Broken clouds.3 mph77%29.45 "HgN/A
4:50 PM63 °FSprinkles. Broken clouds.3 mph77%29.45 "HgN/A
4:20 PM61 °FScattered showers. Partly sunny.5 mph77%29.42 "HgN/A
3:50 PM61 °FScattered showers. Broken clouds.5 mph83%29.42 "HgN/A
3:20 PM61 °FSprinkles. Partly sunny.1 mph83%29.42 "HgN/A
2:50 PM59 °FRain showers. Broken clouds.5 mph82%29.42 "HgN/A
2:20 PM61 °FScattered showers. Broken clouds.6 mph83%29.42 "HgN/A
1:20 PM57 °FRain showers. Partly sunny.13 mph82%29.42 "Hg5 mi
12:50 PM63 °FScattered showers. Broken clouds.7 mph73%29.39 "HgN/A
12:20 PM63 °FScattered showers. Broken clouds.10 mph68%29.39 "HgN/A
11:50 AM61 °FBroken clouds.6 mph83%29.39 "HgN/A
11:20 AM59 °FSprinkles. Scattered clouds.6 mph88%29.39 "HgN/A
10:50 AM59 °FScattered showers. Partly sunny.9 mph88%29.39 "HgN/A
10:20 AM59 °FScattered showers. Scattered clouds.3 mph88%29.36 "HgN/A
9:50 AM59 °FPartly sunny.7 mph88%29.36 "HgN/A
9:20 AM57 °FPartly sunny.7 mph94%29.36 "HgN/A
8:50 AM57 °FPartly sunny.3 mph94%29.36 "HgN/A
8:20 AM55 °FPartly sunny.3 mph94%29.36 "HgN/A
7:50 AM55 °FPartly sunny.5 mph94%29.36 "HgN/A
7:20 AM54 °FSunny.5 mph100%29.36 "Hg10 mi
6:50 AM54 °FClear.2 mph94%29.36 "Hg10 mi
6:20 AM52 °FPassing clouds.1 mph100%29.36 "HgN/A
5:50 AM52 °FPassing clouds.1 mph100%29.36 "HgN/A
5:20 AM54 °FClear.5 mph94%29.36 "Hg10 mi
4:50 AM54 °FPartly cloudy.5 mph94%29.36 "HgN/A
4:20 AM54 °FPassing clouds.5 mph100%29.36 "HgN/A
3:50 AM54 °FPassing clouds.5 mph100%29.36 "HgN/A
3:20 AM54 °FPassing clouds.6 mph100%29.36 "HgN/A
2:50 AM55 °FPartly cloudy.5 mph94%29.36 "HgN/A
2:20 AM55 °FPartly cloudy.5 mph94%29.36 "HgN/A
Weather by CustomWeather, © 2014

See weather overviewHow to use our weather pages